Volver al catálogo

FENGYUN 1C DEB

ActivoPO
NORAD 31038·DEBRIS·🇨🇳 China

Lanzado May 10, 1999 desde Taiyuan Satellite Launch Center

Loading…

Próximos Pases (próximas 24 horas)

TLE

ActualizadoSource: Space-Track

Época: Sep 14, 2026, 02:10 UTC

1 31038U 99025BEG 26257.09031679  .00001117  00000-0  30929-3 0  9993
2 31038  99.0119   3.3124 0084454 127.7657 233.1223 14.46755733 22116

Sigue FENGYUN 1C DEB en tiempo real con AllMySat

Download on the App Store